| time (UTC) | temp C | wind direction | speed KPH | gust KPH | rain 1hr cm | rain 24hr cm | rain mn cm | humidity % | barometer mb |
| 20260508075702 | 19 | 58 | 6.4 | 12.9 | 0.00 | 0.00 | 0.00 | 71 | 1017.0 |
| 20260508075202 | 19 | 20 | 6.4 | 6.4 | 0.00 | 0.00 | 0.00 | 72 | 1017.0 |
| 20260508074704 | 19 | 78 | 8.0 | 11.3 | 0.00 | 0.00 | 0.00 | 72 | 1017.0 |
| 20260508074202 | 19 | 224 | 6.4 | 8.0 | 0.00 | 0.00 | 0.00 | 73 | 1017.0 |
| 20260508073702 | 18 | 132 | 6.4 | 9.7 | 0.00 | 0.00 | 0.00 | 73 | 1017.0 |
| 20260508073202 | 18 | 39 | 6.4 | 9.7 | 0.00 | 0.00 | 0.00 | 73 | 1017.0 |
| 20260508072701 | 18 | 36 | 6.4 | 8.0 | 0.00 | 0.00 | 0.00 | 73 | 1017.0 |
| 20260508072201 | 18 | 56 | 8.0 | 11.3 | 0.00 | 0.00 | 0.00 | 74 | 1017.0 |
| 20260508071701 | 18 | 29 | 6.4 | 8.0 | 0.00 | 0.00 | 0.00 | 74 | 1017.0 |
| 20260508071202 | 18 | 135 | 6.4 | 8.0 | 0.00 | 0.00 | 0.00 | 74 | 1017.0 |
| 20260508070702 | 18 | 75 | 6.4 | 9.7 | 0.00 | 0.00 | 0.00 | 74 | 1017.0 |
| 20260508070202 | 18 | 345 | 4.8 | 8.0 | 0.00 | 0.00 | 0.00 | 74 | 1017.0 |
| 20260508065702 | 18 | 331 | 3.2 | 8.0 | 0.00 | 0.00 | 0.00 | 74 | 1017.0 |
| 20260508065202 | 18 | 121 | 3.2 | 8.0 | 0.00 | 0.00 | 0.00 | 74 | 1017.0 |
| 20260508064701 | 18 | 122 | 4.8 | 6.4 | 0.00 | 0.00 | 0.00 | 74 | 1018.0 |
| 20260508064201 | 18 | 30 | 4.8 | 6.4 | 0.00 | 0.00 | 0.00 | 74 | 1018.0 |
| 20260508063701 | 18 | 68 | 4.8 | 4.8 | 0.00 | 0.00 | 0.00 | 74 | 1018.0 |
| 20260508063202 | 18 | 190 | 3.2 | 3.2 | 0.00 | 0.00 | 0.00 | 75 | 1018.0 |
| 20260508062701 | 18 | 51 | 3.2 | 6.4 | 0.00 | 0.00 | 0.00 | 75 | 1018.0 |
| 20260508062201 | 18 | 53 | 1.6 | 4.8 | 0.00 | 0.00 | 0.00 | 75 | 1018.0 |
| 20260508061701 | 18 | 337 | 4.8 | 4.8 | 0.00 | 0.00 | 0.00 | 75 | 1018.0 |
| 20260508061202 | 18 | 55 | 1.6 | 4.8 | 0.00 | 0.00 | 0.00 | 76 | 1018.0 |
| 20260508060702 | 18 | 356 | 1.6 | 4.8 | 0.00 | 0.00 | 0.00 | 76 | 1018.0 |
| 20260508060201 | 17 | 21 | 3.2 | 4.8 | 0.00 | 0.00 | 0.00 | 77 | 1018.0 |
| 20260508055703 | 17 | 88 | 3.2 | 4.8 | 0.00 | 0.00 | 0.00 | 78 | 1018.0 |
| 20260508055202 | 17 | 75 | 0.0 | 0.0 | 0.00 | 0.00 | 0.00 | 78 | 1018.0 |
| 20260508054701 | 17 | 47 | 1.6 | 3.2 | 0.00 | 0.00 | 0.00 | 79 | 1018.0 |
| 20260508054201 | 17 | 143 | 0.0 | 0.0 | 0.00 | 0.00 | 0.00 | 79 | 1018.0 |
| 20260508053702 | 17 | 143 | 0.0 | 0.0 | 0.00 | 0.00 | 0.00 | 79 | 1018.0 |
| 20260508053202 | 17 | 304 | 1.6 | 4.8 | 0.00 | 0.00 | 0.00 | 78 | 1018.0 |
| 20260508052701 | 17 | 17 | 1.6 | 4.8 | 0.00 | 0.00 | 0.00 | 77 | 1018.0 |
| 20260508052201 | 17 | 360 | 3.2 | 6.4 | 0.00 | 0.00 | 0.00 | 77 | 1018.0 |
| 20260508051705 | 17 | 8 | 3.2 | 6.4 | 0.00 | 0.00 | 0.00 | 77 | 1018.0 |
| 20260508051201 | 17 | 8 | 4.8 | 6.4 | 0.00 | 0.00 | 0.00 | 77 | 1018.0 |
| 20260508050701 | 17 | 6 | 1.6 | 4.8 | 0.00 | 0.00 | 0.00 | 78 | 1018.0 |
| 20260508050201 | 17 | 297 | 1.6 | 3.2 | 0.00 | 0.00 | 0.00 | 78 | 1018.0 |
| 20260508045701 | 17 | 92 | 1.6 | 3.2 | 0.00 | 0.00 | 0.00 | 79 | 1018.0 |
| 20260508045202 | 17 | 70 | 1.6 | 3.2 | 0.00 | 0.00 | 0.00 | 79 | 1018.0 |
| 20260508044701 | 17 | 83 | 1.6 | 3.2 | 0.00 | 0.00 | 0.00 | 79 | 1018.0 |
| 20260508044202 | 17 | 97 | 3.2 | 3.2 | 0.00 | 0.00 | 0.00 | 79 | 1018.0 |
| 20260508043701 | 17 | 58 | 1.6 | 3.2 | 0.00 | 0.00 | 0.00 | 79 | 1018.0 |
| 20260508043201 | 17 | 53 | 1.6 | 3.2 | 0.00 | 0.00 | 0.00 | 79 | 1018.0 |
| 20260508042703 | 17 | 90 | 1.6 | 3.2 | 0.00 | 0.00 | 0.00 | 79 | 1018.0 |
| 20260508042201 | 17 | 51 | 1.6 | 3.2 | 0.00 | 0.00 | 0.00 | 79 | 1018.0 |
| 20260508041702 | 17 | 100 | 0.0 | 0.0 | 0.00 | 0.00 | 0.00 | 79 | 1018.0 |
| 20260508041201 | 17 | 98 | 1.6 | 4.8 | 0.00 | 0.00 | 0.00 | 79 | 1018.0 |
| 20260508040701 | 17 | 105 | 1.6 | 4.8 | 0.00 | 0.00 | 0.00 | 79 | 1018.0 |
| 20260508040201 | 17 | 79 | 3.2 | 4.8 | 0.00 | 0.00 | 0.00 | 79 | 1018.0 |
| 20260508035701 | 17 | 136 | 4.8 | 4.8 | 0.00 | 0.00 | 0.00 | 78 | 1018.0 |
| 20260508035201 | 17 | 114 | 4.8 | 4.8 | 0.00 | 0.00 | 0.00 | 78 | 1018.0 |
| 20260508034704 | 17 | 66 | 3.2 | 4.8 | 0.00 | 0.00 | 0.00 | 78 | 1018.0 |
| 20260508034202 | 18 | 71 | 3.2 | 4.8 | 0.00 | 0.00 | 0.00 | 77 | 1018.0 |
| 20260508033701 | 18 | 63 | 3.2 | 4.8 | 0.00 | 0.00 | 0.00 | 77 | 1018.0 |
| 20260508033201 | 18 | 57 | 3.2 | 4.8 | 0.00 | 0.00 | 0.00 | 76 | 1018.0 |
| 20260508032701 | 18 | 70 | 1.6 | 3.2 | 0.00 | 0.00 | 0.00 | 76 | 1018.0 |
| 20260508032201 | 18 | 62 | 3.2 | 3.2 | 0.00 | 0.00 | 0.00 | 76 | 1018.0 |
| 20260508031702 | 18 | 62 | 1.6 | 4.8 | 0.00 | 0.00 | 0.00 | 75 | 1018.0 |
| 20260508031202 | 18 | 12 | 1.6 | 4.8 | 0.00 | 0.00 | 0.00 | 75 | 1018.0 |
| 20260508030703 | 18 | 81 | 3.2 | 3.2 | 0.00 | 0.00 | 0.00 | 75 | 1018.0 |
| 20260508030202 | 18 | 11 | 1.6 | 4.8 | 0.00 | 0.00 | 0.00 | 75 | 1018.0 |
| 20260508025702 | 18 | 142 | 0.0 | 0.0 | 0.00 | 0.00 | 0.00 | 75 | 1018.0 |
| 20260508025201 | 18 | 71 | 3.2 | 4.8 | 0.00 | 0.00 | 0.00 | 74 | 1018.0 |
| 20260508024702 | 18 | 144 | 4.8 | 4.8 | 0.00 | 0.00 | 0.00 | 74 | 1019.0 |
| 20260508024202 | 18 | 108 | 3.2 | 3.2 | 0.00 | 0.00 | 0.00 | 74 | 1018.0 |
| 20260508023701 | 18 | 116 | 1.6 | 4.8 | 0.00 | 0.00 | 0.00 | 74 | 1019.0 |
| 20260508023202 | 18 | 81 | 1.6 | 4.8 | 0.00 | 0.00 | 0.00 | 74 | 1019.0 |
| 20260508022701 | 18 | 63 | 3.2 | 4.8 | 0.00 | 0.00 | 0.00 | 75 | 1019.0 |
| 20260508022202 | 18 | 34 | 1.6 | 4.8 | 0.00 | 0.00 | 0.00 | 75 | 1019.0 |
| 20260508021701 | 18 | 32 | 1.6 | 4.8 | 0.00 | 0.00 | 0.00 | 75 | 1019.0 |
| 20260508021201 | 18 | 31 | 3.2 | 4.8 | 0.00 | 0.00 | 0.00 | 75 | 1019.0 |
| 20260508020701 | 18 | 106 | 3.2 | 4.8 | 0.00 | 0.00 | 0.00 | 76 | 1019.0 |
| 20260508020202 | 18 | 41 | 3.2 | 4.8 | 0.00 | 0.00 | 0.00 | 76 | 1019.0 |
| 20260508015702 | 18 | 33 | 3.2 | 4.8 | 0.00 | 0.00 | 0.00 | 75 | 1019.0 |
| 20260508015202 | 18 | 41 | 1.6 | 4.8 | 0.00 | 0.00 | 0.00 | 75 | 1019.0 |
| 20260508014701 | 18 | 18 | 3.2 | 3.2 | 0.00 | 0.00 | 0.00 | 75 | 1019.0 |
| 20260508014202 | 18 | 111 | 1.6 | 4.8 | 0.00 | 0.00 | 0.00 | 74 | 1019.0 |
| 20260508013702 | 18 | 100 | 1.6 | 4.8 | 0.00 | 0.00 | 0.00 | 74 | 1019.0 |
| 20260508013201 | 18 | 116 | 3.2 | 6.4 | 0.00 | 0.00 | 0.00 | 74 | 1019.0 |
| 20260508012702 | 18 | 82 | 1.6 | 4.8 | 0.00 | 0.00 | 0.00 | 74 | 1019.0 |
| 20260508012203 | 19 | 113 | 3.2 | 4.8 | 0.00 | 0.00 | 0.00 | 74 | 1019.0 |
| 20260508011702 | 19 | 168 | 3.2 | 4.8 | 0.00 | 0.00 | 0.00 | 74 | 1019.0 |
| 20260508011201 | 19 | 88 | 3.2 | 4.8 | 0.00 | 0.00 | 0.00 | 73 | 1019.0 |
| 20260508010701 | 19 | 50 | 1.6 | 4.8 | 0.00 | 0.00 | 0.00 | 73 | 1019.0 |
| 20260508010201 | 19 | 103 | 1.6 | 4.8 | 0.00 | 0.00 | 0.00 | 73 | 1019.0 |
| 20260508005705 | 19 | 116 | 3.2 | 4.8 | 0.00 | 0.00 | 0.00 | 73 | 1019.0 |
| 20260508005203 | 19 | 136 | 3.2 | 3.2 | 0.00 | 0.00 | 0.00 | 73 | 1019.0 |
| 20260508004701 | 19 | 147 | 1.6 | 4.8 | 0.00 | 0.00 | 0.00 | 73 | 1019.0 |
| 20260508004201 | 19 | 82 | 3.2 | 4.8 | 0.00 | 0.00 | 0.00 | 73 | 1019.0 |
| 20260508003701 | 19 | 115 | 3.2 | 4.8 | 0.00 | 0.00 | 0.00 | 73 | 1019.0 |
| 20260508003202 | 19 | 126 | 1.6 | 4.8 | 0.00 | 0.00 | 0.00 | 73 | 1019.0 |
| 20260508002701 | 19 | 39 | 1.6 | 3.2 | 0.00 | 0.00 | 0.00 | 73 | 1019.0 |
| 20260508002201 | 19 | 79 | 1.6 | 3.2 | 0.00 | 0.00 | 0.00 | 73 | 1019.0 |
| 20260508001702 | 19 | 107 | 1.6 | 3.2 | 0.00 | 0.00 | 0.00 | 73 | 1019.0 |
| 20260508001201 | 19 | 111 | 3.2 | 3.2 | 0.00 | 0.00 | 0.00 | 72 | 1019.0 |
| 20260508000702 | 19 | 47 | 1.6 | 3.2 | 0.00 | 0.00 | 0.00 | 73 | 1019.0 |
| 20260508000201 | 20 | 82 | 0.0 | 0.0 | 0.00 | 0.00 | 0.00 | 72 | 1019.0 |
| 20260507235702 | 20 | 67 | 1.6 | 3.2 | 0.00 | 0.00 | 0.00 | 72 | 1019.0 |
| 20260507235203 | 20 | 75 | 1.6 | 3.2 | 0.00 | 0.00 | 0.00 | 72 | 1019.0 |
| 20260507234701 | 20 | 85 | 3.2 | 3.2 | 0.00 | 0.00 | 0.00 | 72 | 1019.0 |
| 20260507234202 | 20 | 99 | 3.2 | 6.4 | 0.00 | 0.00 | 0.00 | 71 | 1019.0 |
| 20260507233702 | 20 | 78 | 3.2 | 6.4 | 0.00 | 0.00 | 0.00 | 71 | 1019.0 |
| 20260507233202 | 20 | 121 | 3.2 | 3.2 | 0.00 | 0.00 | 0.00 | 71 | 1019.0 |
| 20260507232701 | 20 | 82 | 1.6 | 4.8 | 0.00 | 0.00 | 0.00 | 71 | 1019.0 |
| 20260507232202 | 20 | 55 | 1.6 | 4.8 | 0.00 | 0.00 | 0.00 | 70 | 1019.0 |
| 20260507231701 | 20 | 102 | 3.2 | 3.2 | 0.00 | 0.00 | 0.00 | 70 | 1019.0 |
| 20260507231202 | 20 | 108 | 3.2 | 4.8 | 0.00 | 0.00 | 0.00 | 70 | 1019.0 |
| 20260507230701 | 20 | 76 | 3.2 | 4.8 | 0.00 | 0.00 | 0.00 | 70 | 1019.0 |
| 20260507230201 | 20 | 63 | 3.2 | 4.8 | 0.00 | 0.00 | 0.00 | 70 | 1019.0 |
| 20260507225702 | 20 | 92 | 3.2 | 4.8 | 0.00 | 0.00 | 0.00 | 70 | 1018.0 |
| 20260507225201 | 20 | 91 | 3.2 | 4.8 | 0.00 | 0.00 | 0.00 | 70 | 1018.0 |
| 20260507224701 | 20 | 51 | 3.2 | 4.8 | 0.00 | 0.00 | 0.00 | 70 | 1018.0 |
| 20260507224202 | 20 | 36 | 3.2 | 4.8 | 0.00 | 0.00 | 0.00 | 70 | 1018.0 |
| 20260507223701 | 21 | 7 | 3.2 | 3.2 | 0.00 | 0.00 | 0.00 | 69 | 1019.0 |
| 20260507223201 | 21 | 117 | 1.6 | 4.8 | 0.00 | 0.00 | 0.00 | 69 | 1018.0 |
| 20260507222702 | 21 | 360 | 1.6 | 4.8 | 0.00 | 0.00 | 0.00 | 69 | 1018.0 |
| 20260507222202 | 21 | 69 | 3.2 | 6.4 | 0.00 | 0.00 | 0.00 | 68 | 1018.0 |
| 20260507221701 | 21 | 99 | 3.2 | 6.4 | 0.00 | 0.00 | 0.00 | 68 | 1018.0 |
| 20260507221201 | 21 | 54 | 4.8 | 6.4 | 0.00 | 0.00 | 0.00 | 68 | 1018.0 |
| 20260507220701 | 21 | 34 | 3.2 | 6.4 | 0.00 | 0.00 | 0.00 | 67 | 1018.0 |
| 20260507220202 | 21 | 83 | 3.2 | 4.8 | 0.00 | 0.00 | 0.00 | 67 | 1018.0 |
| 20260507215701 | 21 | 63 | 1.6 | 4.8 | 0.00 | 0.00 | 0.00 | 67 | 1018.0 |
| 20260507215201 | 21 | 6 | 3.2 | 6.4 | 0.00 | 0.00 | 0.00 | 67 | 1018.0 |
| 20260507214703 | 21 | 93 | 3.2 | 4.8 | 0.00 | 0.00 | 0.00 | 66 | 1018.0 |
| 20260507214202 | 21 | 80 | 4.8 | 4.8 | 0.00 | 0.00 | 0.00 | 66 | 1018.0 |
| 20260507213701 | 21 | 44 | 3.2 | 8.0 | 0.00 | 0.00 | 0.00 | 65 | 1018.0 |
| 20260507213201 | 22 | 59 | 3.2 | 8.0 | 0.00 | 0.00 | 0.00 | 65 | 1018.0 |
| 20260507212701 | 22 | 34 | 6.4 | 9.7 | 0.00 | 0.00 | 0.00 | 65 | 1018.0 |
| 20260507211718 | 22 | 342 | 6.4 | 8.0 | 0.00 | 0.00 | 0.00 | 64 | 1018.0 |
| 20260507211201 | 22 | 74 | 6.4 | 9.7 | 0.00 | 0.00 | 0.00 | 64 | 1018.0 |
| 20260507210702 | 22 | 25 | 6.4 | 8.0 | 0.00 | 0.00 | 0.00 | 63 | 1018.0 |
| 20260507210202 | 22 | 353 | 6.4 | 6.4 | 0.00 | 0.00 | 0.00 | 63 | 1018.0 |
| 20260507205701 | 22 | 32 | 8.0 | 11.3 | 0.00 | 0.00 | 0.00 | 62 | 1018.0 |
| 20260507205202 | 23 | 303 | 8.0 | 11.3 | 0.00 | 0.00 | 0.00 | 62 | 1018.0 |
| 20260507204703 | 23 | 51 | 9.7 | 14.5 | 0.00 | 0.00 | 0.00 | 61 | 1018.0 |
| 20260507204201 | 23 | 64 | 8.0 | 9.7 | 0.00 | 0.00 | 0.00 | 61 | 1018.0 |
| 20260507203701 | 23 | 148 | 8.0 | 9.7 | 0.00 | 0.00 | 0.00 | 61 | 1018.0 |
| 20260507203201 | 23 | 74 | 8.0 | 11.3 | 0.00 | 0.00 | 0.00 | 60 | 1018.0 |
| 20260507202703 | 23 | 28 | 8.0 | 9.7 | 0.00 | 0.00 | 0.00 | 60 | 1018.0 |
| 20260507202202 | 24 | 52 | 8.0 | 9.7 | 0.00 | 0.00 | 0.00 | 59 | 1018.0 |
| 20260507201701 | 24 | 56 | 8.0 | 16.1 | 0.00 | 0.00 | 0.00 | 58 | 1018.0 |
| 20260507201201 | 24 | 203 | 9.7 | 16.1 | 0.00 | 0.00 | 0.00 | 58 | 1018.0 |
| 20260507200703 | 24 | 32 | 16.1 | 16.1 | 0.00 | 0.00 | 0.00 | 57 | 1018.0 |
| 20260507200201 | 24 | 138 | 9.7 | 14.5 | 0.00 | 0.00 | 0.00 | 58 | 1018.0 |
| 20260507195701 | 24 | 24 | 9.7 | 14.5 | 0.00 | 0.00 | 0.00 | 58 | 1018.0 |
| 20260507195201 | 25 | 56 | 8.0 | 14.5 | 0.00 | 0.00 | 0.00 | 57 | 1018.0 |
| 20260507194701 | 25 | 340 | 8.0 | 14.5 | 0.00 | 0.00 | 0.00 | 57 | 1018.0 |
| 20260507194201 | 25 | 28 | 3.2 | 8.0 | 0.00 | 0.00 | 0.00 | 56 | 1018.0 |
| 20260507193701 | 25 | 48 | 6.4 | 12.9 | 0.00 | 0.00 | 0.00 | 56 | 1018.0 |
| 20260507193201 | 25 | 294 | 6.4 | 12.9 | 0.00 | 0.00 | 0.00 | 56 | 1018.0 |
| 20260507192701 | 25 | 38 | 3.2 | 4.8 | 0.00 | 0.00 | 0.00 | 56 | 1018.0 |
| 20260507192202 | 25 | 152 | 8.0 | 16.1 | 0.00 | 0.00 | 0.00 | 56 | 1018.0 |
| 20260507191701 | 25 | 99 | 4.8 | 8.0 | 0.00 | 0.00 | 0.00 | 56 | 1018.0 |
| 20260507191201 | 25 | 345 | 6.4 | 11.3 | 0.00 | 0.00 | 0.00 | 55 | 1018.0 |
| 20260507190702 | 25 | 84 | 6.4 | 11.3 | 0.00 | 0.00 | 0.00 | 55 | 1018.0 |
| 20260507190202 | 25 | 59 | 6.4 | 11.3 | 0.00 | 0.00 | 0.00 | 54 | 1018.0 |
| 20260507185701 | 25 | 286 | 8.0 | 17.7 | 0.00 | 0.00 | 0.00 | 54 | 1018.0 |
| 20260507185202 | 25 | 74 | 9.7 | 17.7 | 0.00 | 0.00 | 0.00 | 55 | 1018.0 |
| 20260507184701 | 25 | 354 | 11.3 | 17.7 | 0.00 | 0.00 | 0.00 | 54 | 1018.0 |
| 20260507184202 | 25 | 329 | 12.9 | 22.5 | 0.00 | 0.00 | 0.00 | 53 | 1018.0 |
| 20260507183702 | 26 | 68 | 12.9 | 19.3 | 0.00 | 0.00 | 0.00 | 53 | 1018.0 |
| 20260507183202 | 26 | 7 | 12.9 | 19.3 | 0.00 | 0.00 | 0.00 | 52 | 1018.0 |
| 20260507182701 | 26 | 344 | 6.4 | 11.3 | 0.00 | 0.00 | 0.00 | 52 | 1018.0 |
| 20260507182201 | 26 | 73 | 6.4 | 11.3 | 0.00 | 0.00 | 0.00 | 53 | 1018.0 |
| 20260507181701 | 26 | 79 | 8.0 | 14.5 | 0.00 | 0.00 | 0.00 | 53 | 1018.0 |
| 20260507181202 | 26 | 267 | 8.0 | 14.5 | 0.00 | 0.00 | 0.00 | 53 | 1018.0 |
| 20260507180702 | 26 | 329 | 11.3 | 12.9 | 0.00 | 0.00 | 0.00 | 52 | 1018.0 |
| 20260507180201 | 26 | 313 | 12.9 | 19.3 | 0.00 | 0.00 | 0.00 | 52 | 1018.0 |
| 20260507175703 | 26 | 322 | 12.9 | 19.3 | 0.00 | 0.00 | 0.00 | 52 | 1018.0 |
| 20260507175202 | 26 | 46 | 14.5 | 19.3 | 0.00 | 0.00 | 0.00 | 54 | 1019.0 |
| 20260507174702 | 25 | 278 | 6.4 | 12.9 | 0.00 | 0.00 | 0.00 | 54 | 1019.0 |
| 20260507174202 | 25 | 262 | 9.7 | 12.9 | 0.00 | 0.00 | 0.00 | 54 | 1019.0 |
| 20260507173701 | 26 | 27 | 12.9 | 12.9 | 0.00 | 0.00 | 0.00 | 53 | 1019.0 |
| 20260507173202 | 26 | 51 | 11.3 | 17.7 | 0.00 | 0.00 | 0.00 | 53 | 1019.0 |
| 20260507172701 | 26 | 75 | 8.0 | 11.3 | 0.00 | 0.00 | 0.00 | 52 | 1019.0 |
| 20260507172201 | 26 | 23 | 8.0 | 16.1 | 0.00 | 0.00 | 0.00 | 51 | 1019.0 |
| 20260507171705 | 26 | 44 | 11.3 | 16.1 | 0.00 | 0.00 | 0.00 | 52 | 1019.0 |
| 20260507171202 | 26 | 108 | 9.7 | 12.9 | 0.00 | 0.00 | 0.00 | 51 | 1019.0 |
| 20260507170702 | 26 | 83 | 6.4 | 14.5 | 0.00 | 0.00 | 0.00 | 50 | 1019.0 |
| 20260507170201 | 26 | 35 | 8.0 | 12.9 | 0.00 | 0.00 | 0.00 | 50 | 1019.0 |
| 20260507165702 | 26 | 347 | 12.9 | 12.9 | 0.00 | 0.00 | 0.00 | 48 | 1019.0 |
| 20260507165201 | 25 | 67 | 8.0 | 14.5 | 0.00 | 0.00 | 0.00 | 49 | 1019.0 |
| 20260507164701 | 25 | 356 | 9.7 | 14.5 | 0.00 | 0.00 | 0.00 | 51 | 1019.0 |
| 20260507164201 | 25 | 84 | 14.5 | 22.5 | 0.00 | 0.00 | 0.00 | 51 | 1019.0 |
| 20260507163701 | 26 | 66 | 14.5 | 22.5 | 0.00 | 0.00 | 0.00 | 49 | 1019.0 |
| 20260507163202 | 26 | 345 | 9.7 | 14.5 | 0.00 | 0.00 | 0.00 | 50 | 1019.0 |
| 20260507162702 | 26 | 184 | 8.0 | 14.5 | 0.00 | 0.00 | 0.00 | 50 | 1019.0 |
| 20260507162201 | 26 | 320 | 6.4 | 11.3 | 0.00 | 0.00 | 0.00 | 51 | 1020.0 |
| 20260507161702 | 26 | 274 | 3.2 | 6.4 | 0.00 | 0.00 | 0.00 | 53 | 1020.0 |
| 20260507161202 | 25 | 102 | 14.5 | 22.5 | 0.00 | 0.00 | 0.00 | 53 | 1020.0 |
| 20260507160701 | 25 | 11 | 14.5 | 22.5 | 0.00 | 0.00 | 0.00 | 54 | 1020.0 |
| 20260507160201 | 25 | 3 | 22.5 | 22.5 | 0.00 | 0.00 | 0.00 | 54 | 1020.0 |
| 20260507155708 | 25 | 337 | 12.9 | 17.7 | 0.00 | 0.00 | 0.00 | 53 | 1020.0 |
| 20260507155204 | 25 | 109 | 11.3 | 14.5 | 0.00 | 0.00 | 0.00 | 54 | 1020.0 |
| 20260507154702 | 25 | 32 | 11.3 | 17.7 | 0.00 | 0.00 | 0.00 | 55 | 1020.0 |
| 20260507154203 | 25 | 187 | 11.3 | 17.7 | 0.00 | 0.00 | 0.00 | 54 | 1020.0 |
| 20260507153702 | 26 | 15 | 8.0 | 9.7 | 0.00 | 0.00 | 0.00 | 53 | 1020.0 |
| 20260507153202 | 25 | 292 | 6.4 | 14.5 | 0.00 | 0.00 | 0.00 | 54 | 1021.0 |
| 20260507152701 | 25 | 11 | 6.4 | 12.9 | 0.00 | 0.00 | 0.00 | 53 | 1021.0 |
| 20260507151702 | 25 | 288 | 9.7 | 20.9 | 0.00 | 0.00 | 0.00 | 54 | 1021.0 |
| 20260507151201 | 25 | 71 | 12.9 | 20.9 | 0.00 | 0.00 | 0.00 | 53 | 1021.0 |
| 20260507150701 | 25 | 33 | 8.0 | 14.5 | 0.00 | 0.00 | 0.00 | 53 | 1021.0 |
| 20260507150201 | 25 | 92 | 4.8 | 9.7 | 0.00 | 0.00 | 0.00 | 53 | 1021.0 |
| 20260507145702 | 25 | 131 | 4.8 | 9.7 | 0.00 | 0.00 | 0.00 | 53 | 1021.0 |
| 20260507145201 | 25 | 68 | 11.3 | 17.7 | 0.00 | 0.00 | 0.00 | 54 | 1021.0 |
| 20260507144702 | 25 | 345 | 12.9 | 16.1 | 0.00 | 0.00 | 0.00 | 54 | 1021.0 |
| 20260507144202 | 25 | 357 | 11.3 | 14.5 | 0.00 | 0.00 | 0.00 | 52 | 1021.0 |
| 20260507143701 | 25 | 50 | 8.0 | 14.5 | 0.00 | 0.00 | 0.00 | 53 | 1021.0 |
| 20260507143201 | 25 | 335 | 8.0 | 14.5 | 0.00 | 0.00 | 0.00 | 55 | 1022.0 |
| 20260507142702 | 24 | 162 | 14.5 | 14.5 | 0.00 | 0.00 | 0.00 | 54 | 1022.0 |
| 20260507142202 | 24 | 64 | 12.9 | 20.9 | 0.00 | 0.00 | 0.00 | 54 | 1022.0 |
| 20260507141703 | 24 | 37 | 12.9 | 20.9 | 0.00 | 0.00 | 0.00 | 54 | 1022.0 |
| 20260507141201 | 24 | 18 | 9.7 | 19.3 | 0.00 | 0.00 | 0.00 | 55 | 1022.0 |
| 20260507140702 | 24 | 68 | 9.7 | 19.3 | 0.00 | 0.00 | 0.00 | 54 | 1022.0 |
| 20260507140201 | 24 | 50 | 9.7 | 19.3 | 0.00 | 0.00 | 0.00 | 56 | 1022.0 |
| 20260507135702 | 24 | 11 | 8.0 | 16.1 | 0.00 | 0.00 | 0.00 | 57 | 1022.0 |
| 20260507135201 | 24 | 13 | 11.3 | 16.1 | 0.00 | 0.00 | 0.00 | 56 | 1022.0 |
| 20260507134701 | 24 | 114 | 9.7 | 11.3 | 0.00 | 0.00 | 0.00 | 56 | 1022.0 |
| 20260507134201 | 23 | 253 | 8.0 | 16.1 | 0.00 | 0.00 | 0.00 | 57 | 1022.0 |
| 20260507133702 | 23 | 57 | 11.3 | 16.1 | 0.00 | 0.00 | 0.00 | 58 | 1022.0 |
| 20260507133202 | 22 | 115 | 6.4 | 6.4 | 0.00 | 0.00 | 0.00 | 61 | 1022.0 |
| 20260507132701 | 22 | 48 | 4.8 | 8.0 | 0.00 | 0.00 | 0.00 | 65 | 1022.0 |
| 20260507132202 | 22 | 41 | 4.8 | 8.0 | 0.00 | 0.00 | 0.00 | 65 | 1022.0 |
| 20260507131701 | 22 | 64 | 4.8 | 11.3 | 0.00 | 0.00 | 0.00 | 65 | 1022.0 |
| 20260507131202 | 22 | 53 | 3.2 | 6.4 | 0.00 | 0.00 | 0.00 | 67 | 1022.0 |
| 20260507130201 | 21 | 30 | 4.8 | 11.3 | 0.00 | 0.00 | 0.00 | 68 | 1022.0 |
| 20260507125701 | 21 | 63 | 8.0 | 11.3 | 0.00 | 0.00 | 0.00 | 69 | 1022.0 |
| 20260507125202 | 21 | 78 | 6.4 | 9.7 | 0.00 | 0.00 | 0.00 | 69 | 1022.0 |
| 20260507124702 | 21 | 333 | 4.8 | 9.7 | 0.00 | 0.00 | 0.00 | 68 | 1022.0 |
| 20260507124201 | 22 | 155 | 4.8 | 9.7 | 0.00 | 0.00 | 0.00 | 68 | 1022.0 |
| 20260507123702 | 21 | 51 | 4.8 | 9.7 | 0.00 | 0.00 | 0.00 | 68 | 1022.0 |
| 20260507123202 | 21 | 104 | 4.8 | 9.7 | 0.00 | 0.00 | 0.00 | 69 | 1022.0 |
| 20260507122701 | 21 | 143 | 1.6 | 4.8 | 0.00 | 0.00 | 0.00 | 70 | 1022.0 |
| 20260507122202 | 19 | 98 | 6.4 | 9.7 | 0.00 | 0.00 | 0.00 | 72 | 1022.0 |
| 20260507121702 | 19 | 129 | 4.8 | 6.4 | 0.00 | 0.00 | 0.00 | 73 | 1022.0 |
| 20260507121203 | 19 | 99 | 4.8 | 6.4 | 0.00 | 0.00 | 0.00 | 75 | 1022.0 |
| 20260507120702 | 18 | 53 | 3.2 | 8.0 | 0.00 | 0.00 | 0.00 | 75 | 1022.0 |
| 20260507120201 | 18 | 80 | 3.2 | 4.8 | 0.00 | 0.00 | 0.00 | 76 | 1022.0 |
| 20260507115703 | 18 | 352 | 3.2 | 3.2 | 0.00 | 0.00 | 0.00 | 78 | 1023.0 |
| 20260507115202 | 18 | 64 | 4.8 | 6.4 | 0.00 | 0.00 | 0.00 | 76 | 1023.0 |
| 20260507114702 | 18 | 47 | 4.8 | 4.8 | 0.00 | 0.00 | 0.00 | 75 | 1023.0 |
| 20260507114201 | 18 | 78 | 4.8 | 8.0 | 0.00 | 0.00 | 0.00 | 75 | 1023.0 |
| 20260507113702 | 18 | 66 | 3.2 | 8.0 | 0.00 | 0.00 | 0.00 | 75 | 1023.0 |
| 20260507113202 | 18 | 53 | 6.4 | 8.0 | 0.00 | 0.00 | 0.00 | 74 | 1023.0 |
| 20260507112701 | 18 | 36 | 6.4 | 8.0 | 0.00 | 0.00 | 0.00 | 74 | 1023.0 |
| 20260507112201 | 18 | 67 | 4.8 | 4.8 | 0.00 | 0.00 | 0.00 | 74 | 1023.0 |
| 20260507111702 | 18 | 88 | 4.8 | 4.8 | 0.00 | 0.00 | 0.00 | 74 | 1023.0 |
| 20260507111202 | 18 | 96 | 3.2 | 6.4 | 0.00 | 0.00 | 0.00 | 74 | 1023.0 |
| 20260507110702 | 18 | 180 | 3.2 | 4.8 | 0.00 | 0.00 | 0.00 | 75 | 1023.0 |
| 20260507110203 | 17 | 50 | 3.2 | 8.0 | 0.00 | 0.00 | 0.00 | 76 | 1023.0 |
| 20260507105701 | 17 | 50 | 3.2 | 8.0 | 0.00 | 0.00 | 0.00 | 76 | 1023.0 |
| 20260507105201 | 17 | 51 | 1.6 | 3.2 | 0.00 | 0.00 | 0.00 | 76 | 1023.0 |
| 20260507104702 | 17 | 82 | 1.6 | 4.8 | 0.00 | 0.00 | 0.00 | 77 | 1023.0 |
| 20260507104202 | 17 | 82 | 1.6 | 4.8 | 0.00 | 0.00 | 0.00 | 78 | 1023.0 |
| 20260507103702 | 17 | 63 | 1.6 | 3.2 | 0.00 | 0.00 | 0.00 | 78 | 1023.0 |
| 20260507103201 | 16 | 41 | 1.6 | 3.2 | 0.00 | 0.00 | 0.00 | 78 | 1022.0 |
| 20260507102701 | 16 | 72 | 1.6 | 3.2 | 0.00 | 0.00 | 0.00 | 80 | 1023.0 |
| 20260507102202 | 15 | 69 | 0.0 | 0.0 | 0.00 | 0.00 | 0.00 | 80 | 1023.0 |
| 20260507101702 | 15 | 79 | 1.6 | 3.2 | 0.00 | 0.00 | 0.00 | 82 | 1023.0 |
| 20260507101202 | 15 | 94 | 1.6 | 3.2 | 0.00 | 0.00 | 0.00 | 83 | 1022.0 |
| 20260507100702 | 15 | 87 | 1.6 | 3.2 | 0.00 | 0.00 | 0.00 | 84 | 1022.0 |
| 20260507100202 | 15 | 123 | 1.6 | 3.2 | 0.00 | 0.00 | 0.00 | 84 | 1023.0 |
| 20260507095702 | 15 | 82 | 1.6 | 3.2 | 0.00 | 0.00 | 0.00 | 85 | 1022.0 |
| 20260507095202 | 15 | 112 | 1.6 | 3.2 | 0.00 | 0.00 | 0.00 | 85 | 1022.0 |
| 20260507094701 | 15 | 102 | 0.0 | 0.0 | 0.00 | 0.00 | 0.00 | 85 | 1022.0 |
| 20260507094202 | 15 | 83 | 0.0 | 0.0 | 0.00 | 0.00 | 0.00 | 86 | 1022.0 |
| 20260507093702 | 15 | 36 | 1.6 | 3.2 | 0.00 | 0.00 | 0.00 | 86 | 1022.0 |
| 20260507093202 | 15 | 74 | 1.6 | 3.2 | 0.00 | 0.00 | 0.00 | 86 | 1022.0 |
| 20260507092701 | 14 | 97 | 1.6 | 4.8 | 0.00 | 0.00 | 0.00 | 87 | 1022.0 |
| 20260507092201 | 14 | 74 | 0.0 | 0.0 | 0.00 | 0.00 | 0.00 | 88 | 1022.0 |
| 20260507091702 | 14 | 104 | 0.0 | 0.0 | 0.00 | 0.00 | 0.00 | 88 | 1022.0 |
| 20260507091201 | 13 | 98 | 0.0 | 0.0 | 0.00 | 0.00 | 0.00 | 89 | 1022.0 |
| 20260507090702 | 13 | 107 | 0.0 | 0.0 | 0.00 | 0.00 | 0.00 | 90 | 1022.0 |
| 20260507090201 | 13 | 97 | 0.0 | 0.0 | 0.00 | 0.00 | 0.00 | 91 | 1022.0 |